Back to catalog

SL-16 R/B

AliveLEO
NORAD 19120·ROCKET BODY·🇷🇺 Russia

Launched May 15, 1988 from Baikonur Cosmodrome

Loading…

Next Passes (next 24 hours)

TLE

FreshSource: Space-Track

Epoch: Sep 13, 2026, 19:58 UTC

1 19120U 88039B   26256.83240399  .00000125  00000-0  81636-4 0  9996
2 19120  71.0161  30.7128 0020183  47.0634 313.2180 14.19637551985080

Track SL-16 R/B in real time with AllMySat

Download on the App Store